GW2953 Weather Reports


Display with metric or nautical units.
time (UTC)temp
F
wind
direction
speed
MPH
gust
MPH
rain 1hr
in
rain 24hr
in
rain mn
in
humidity
%
barometer
mb
20260903105636 55 275 0.0 2.0 0.00 0.05 0.05 99 1013.0
20260903105132 55 89 0.0 2.0 0.00 0.05 0.05 99 1013.1
20260903104631 55 164 0.0 1.0 0.00 0.05 0.05 99 1013.2
20260903104127 55 136 0.0 1.0 0.00 0.05 0.05 99 1013.3
20260903103622 55 142 0.0 1.0 0.02 0.05 0.05 99 1013.3
20260903103119 55 142 0.0 2.0 0.02 0.05 0.05 99 1013.1
20260903102614 55 235 0.0 0.0 0.02 0.04 0.04 99 1013.3
20260903102112 55 315 0.0 1.0 0.05 0.04 0.04 99 1013.3
20260903101607 55 336 0.0 1.0 0.07 0.04 0.04 99 1013.2
20260903101103 55 224 1.0 2.0 0.07 0.04 0.04 99 1013.4
20260903100603 55 89 0.0 0.0 0.07 0.03 0.03 99 1013.5
20260903095554 55 322 0.0 2.0 0.02 0.02 0.02 99 1013.3
20260903095049 55 157 0.0 1.0 0.00 0.01 0.01 99 1013.3
20260903094549 55 217 0.0 1.0 0.00 0.01 0.01 99 1013.3
20260903094045 55 75 0.0 2.0 0.00 0.01 0.01 99 1013.4
20260903093545 55 106 0.0 2.0 0.02 0.01 0.01 99 1013.5
20260903093040 55 87 0.0 2.0 0.02 0.01 0.01 99 1013.5
20260903092539 55 70 3.0 4.0 0.00 0.01 0.01 99 1013.6
20260903092034 55 73 2.0 3.0 0.00 0.01 0.01 99 1013.7
20260903091532 55 82 2.0 3.0 0.02 0.01 0.01 99 1013.7
20260903091027 55 310 0.0 1.0 0.02 0.01 0.01 99 1013.9
20260903090523 55 302 0.0 2.0 0.00 0.00 0.00 99 1013.8
20260903090022 55 75 0.0 0.0 0.02 0.00 0.00 99 1013.8
20260903085520 55 54 2.0 2.0 0.02 0.00 0.00 99 1013.8
20260903085016 55 309 0.0 1.0 0.00 0.00 0.00 99 1013.8
20260903084514 55 110 0.0 2.0 0.00 0.00 0.00 99 1013.8
20260903084008 55 106 2.0 2.0 0.00 0.00 0.00 99 1013.8
20260903083504 55 269 0.0 2.0 0.00 0.00 0.00 99 1013.6
20260903082959 55 240 0.0 2.0 0.00 0.00 0.00 99 1013.6
20260903082453 55 50 0.0 1.0 0.00 0.00 0.00 99 1013.8
20260903081948 55 75 0.0 2.0 0.00 0.00 0.00 99 1013.8
20260903081444 55 75 2.0 3.0 0.00 0.00 0.00 99 1013.8
20260903080940 55 48 1.0 2.0 0.00 0.00 0.00 99 1013.9
20260903080435 55 269 0.0 2.0 0.00 0.00 0.00 99 1013.8
20260903075931 55 89 0.0 2.0 0.00 0.00 0.00 99 1013.5
20260903075427 55 47 1.0 1.0 0.00 0.00 0.00 99 1013.8
20260903074921 55 130 0.0 2.0 0.00 0.00 0.00 99 1013.8
20260903074420 55 52 0.0 1.0 0.00 0.00 0.00 99 1013.6
20260903073916 55 77 3.0 3.0 0.00 0.00 0.00 99 1013.8
20260903073411 55 63 2.0 2.0 0.00 0.00 0.00 99 1013.9
20260903072907 55 62 0.0 0.0 0.00 0.00 0.00 99 1013.8
20260903072403 55 62 0.0 0.0 0.00 0.00 0.00 99 1014.2
20260903071900 55 55 0.0 1.0 0.00 0.00 0.00 99 1013.9
20260903071355 55 124 0.0 1.0 0.00 0.00 0.00 99 1013.9
20260903070850 55 89 0.0 1.0 0.00 0.00 0.00 99 1014.0
20260903070345 55 328 1.0 1.0 0.00 0.00 0.00 99 1013.8
20260903065840 55 60 0.0 1.0 0.00 0.43 0.43 99 1013.9
20260903065339 55 228 0.0 1.0 0.00 0.43 0.43 99 1013.9
20260903064839 55 135 0.0 1.0 0.00 0.43 0.43 99 1013.9
20260903064334 55 85 1.0 3.0 0.00 0.43 0.43 99 1013.9
20260903063830 55 64 2.0 3.0 0.00 0.43 0.43 99 1014.0
20260903063325 55 89 2.0 2.0 0.00 0.43 0.43 99 1014.0
20260903062821 55 299 0.0 0.0 0.00 0.43 0.43 99 1014.1
20260903062320 55 102 0.0 0.0 0.00 0.43 0.43 99 1014.1
20260903061817 55 70 1.0 2.0 0.00 0.43 0.43 99 1014.2
20260903061316 55 59 0.0 1.0 0.02 0.43 0.43 99 1014.2
20260903060813 55 135 0.0 0.0 0.02 0.43 0.43 99 1014.2
20260903060311 55 135 0.0 1.0 0.00 0.43 0.43 99 1014.2
20260903055809 55 68 0.0 1.0 0.00 0.43 0.43 99 1014.3
20260903055308 55 96 1.0 2.0 0.05 0.43 0.43 99 1014.5
20260903054803 55 62 0.0 0.0 0.07 0.42 0.42 98 1014.3
20260903054303 55 62 0.0 0.0 0.07 0.42 0.42 99 1014.4
20260903053759 55 88 0.0 1.0 0.07 0.41 0.41 98 1014.5
20260903053254 55 147 0.0 1.0 0.05 0.41 0.41 99 1014.8
20260903052750 55 296 0.0 1.0 0.05 0.40 0.40 98 1014.7
20260903052245 55 293 1.0 2.0 0.02 0.40 0.40 98 1014.7
20260903051740 55 269 0.0 1.0 0.00 0.39 0.39 98 1014.4
20260903051236 55 135 0.0 0.0 0.00 0.39 0.39 98 1014.8
20260903050731 55 135 0.0 1.0 0.00 0.39 0.39 98 1014.5
20260903050230 55 70 1.0 2.0 0.00 0.39 0.39 98 1014.4
20260903045725 55 89 1.0 2.0 0.00 0.39 0.39 98 1014.4
20260903045222 55 55 0.0 1.0 0.00 0.39 0.39 98 1014.4
20260903044717 55 150 0.0 1.0 0.00 0.39 0.39 98 1014.5
20260903044213 55 58 0.0 1.0 0.00 0.39 0.39 98 1014.3
20260903043710 55 87 0.0 1.0 0.02 0.39 0.39 98 1014.5
20260903043209 55 66 0.0 2.0 0.02 0.39 0.39 98 1014.5
20260903042708 55 75 0.0 0.0 0.02 0.39 0.39 98 1014.4
20260903042203 55 154 0.0 1.0 0.05 0.39 0.39 98 1014.3
20260903041700 55 126 0.0 2.0 0.07 0.39 0.39 98 1014.0
20260903041155 55 89 0.0 2.0 0.12 0.38 0.38 98 1014.3
20260903040654 55 164 0.0 1.0 0.12 0.37 0.37 98 1014.2
20260903040150 55 205 0.0 1.0 0.05 0.36 0.36 98 1014.2
20260903035646 55 155 0.0 1.0 0.07 0.35 0.35 98 1014.0
20260903035141 55 76 0.0 2.0 0.17 0.35 0.35 98 1014.1
20260903034636 55 87 1.0 1.0 0.17 0.34 0.34 98 1014.0
20260903034131 55 50 0.0 2.0 0.14 0.32 0.32 98 1014.2
20260903033626 55 129 0.0 1.0 0.05 0.30 0.30 98 1013.8
20260903033121 55 120 1.0 2.0 0.02 0.29 0.29 98 1013.8
20260903032616 55 76 0.0 2.0 0.05 0.29 0.29 98 1013.9
20260903032111 55 40 0.0 2.0 0.07 0.29 0.29 98 1013.9
20260903031606 55 89 0.0 2.0 0.09 0.28 0.28 98 1013.9
20260903031101 55 77 2.0 2.0 0.12 0.27 0.27 98 1013.8
20260903030556 55 76 1.0 2.0 0.12 0.26 0.26 98 1013.7
20260903030053 55 130 0.0 3.0 0.09 0.25 0.25 98 1013.7
20260903025548 55 174 2.0 2.0 0.07 0.24 0.24 98 1013.7
20260903025044 55 333 1.0 2.0 0.07 0.23 0.23 98 1013.7
20260903024543 56 191 0.0 3.0 0.09 0.23 0.23 98 1013.8
20260903024037 55 220 2.0 3.0 0.09 0.22 0.22 97 1013.9
20260903023533 56 218 0.0 2.0 0.07 0.21 0.21 97 1013.8
20260903023028 56 155 2.0 2.0 0.05 0.20 0.20 97 1013.5
20260903022527 56 50 0.0 1.0 0.05 0.19 0.19 97 1013.8
20260903022026 56 249 0.0 1.0 0.02 0.19 0.19 97 1013.8
20260903021521 55 315 0.0 1.0 0.00 0.18 0.18 97 1013.9
20260903021016 56 154 0.0 1.0 0.02 0.18 0.18 97 1014.0
20260903020512 55 205 0.0 1.0 0.02 0.18 0.18 97 1013.8
20260903020006 55 60 1.0 3.0 0.12 0.18 0.18 97 1013.9
20260903015502 56 125 2.0 3.0 0.14 0.17 0.17 97 1013.9
20260903014956 56 233 0.0 1.0 0.09 0.16 0.16 97 1014.0
20260903014455 56 102 1.0 2.0 0.05 0.15 0.15 97 1014.1
20260903013951 56 145 2.0 2.0 0.07 0.15 0.15 97 1014.1
20260903013451 56 218 0.0 1.0 0.05 0.14 0.14 97 1014.1
20260903012950 56 193 0.0 1.0 0.02 0.13 0.13 97 1014.2
20260903012449 56 143 1.0 3.0 0.07 0.13 0.13 96 1014.1
20260903011948 56 326 0.0 1.0 0.12 0.13 0.13 96 1014.2
20260903011443 56 135 0.0 2.0 0.07 0.12 0.12 96 1014.3
20260903010938 56 155 1.0 3.0 0.07 0.11 0.11 96 1014.2
20260903010434 56 160 3.0 4.0 0.05 0.10 0.10 96 1014.3
20260903005931 56 132 1.0 3.0 0.07 0.10 0.10 96 1014.2
20260903005427 56 117 2.0 3.0 0.07 0.09 0.09 96 1014.3
20260903004923 56 89 1.0 2.0 0.05 0.09 0.09 96 1014.2
20260903004418 56 98 2.0 3.0 0.07 0.08 0.08 96 1014.4
20260903003913 56 43 0.0 2.0 0.07 0.08 0.08 96 1014.2
20260903003408 57 173 1.0 2.0 0.07 0.07 0.07 96 1014.3
20260903002908 56 75 0.0 3.0 0.02 0.06 0.06 95 1014.4
20260903002403 56 89 1.0 2.0 0.00 0.06 0.06 95 1014.5
20260903001903 56 69 0.0 3.0 0.00 0.06 0.06 95 1014.4
20260903001358 56 130 0.0 2.0 0.02 0.06 0.06 95 1014.3
20260903000857 57 113 1.0 2.0 0.02 0.06 0.06 95 1014.3
20260903000355 57 94 2.0 3.0 0.00 0.06 0.06 95 1014.8
20260902235850 56 123 0.0 2.0 0.00 0.06 0.06 95 1014.7
20260902235346 56 133 1.0 2.0 0.00 0.06 0.06 95 1014.7
20260902234840 56 235 0.0 2.0 0.00 0.06 0.06 95 1014.8
20260902234335 56 246 0.0 1.0 0.00 0.06 0.06 95 1014.5
20260902233834 56 239 0.0 2.0 0.00 0.06 0.06 95 1014.7
20260902233333 56 134 1.0 2.0 0.02 0.06 0.06 95 1014.5
20260902232832 56 140 1.0 3.0 0.00 0.05 0.05 94 1014.7
20260902232327 56 95 1.0 3.0 0.00 0.05 0.05 94 1014.8
20260902231826 56 100 2.0 3.0 0.00 0.05 0.05 94 1015.1
20260902231322 56 117 0.0 1.0 0.00 0.05 0.05 94 1014.9
20260902230817 56 284 0.0 2.0 0.00 0.05 0.05 94 1014.9
20260902230316 56 333 0.0 1.0 0.02 0.05 0.05 93 1015.3
20260902225810 57 71 0.0 2.0 0.02 0.05 0.05 93 1015.2
20260902225306 57 85 1.0 2.0 0.00 0.05 0.05 93 1015.2
20260902224804 56 53 0.0 2.0 0.00 0.05 0.05 92 1015.2
20260902224259 56 87 3.0 4.0 0.02 0.05 0.05 92 1015.2
20260902223756 57 75 3.0 4.0 0.05 0.05 0.05 91 1015.4
20260902223255 57 88 3.0 3.0 0.05 0.04 0.04 91 1015.4
20260902222748 57 76 2.0 3.0 0.02 0.04 0.04 89 1015.5
20260902222243 57 81 3.0 3.0 0.02 0.04 0.04 88 1015.6
20260902221737 58 113 2.0 3.0 0.05 0.04 0.04 88 1015.5
20260902221236 58 79 0.0 1.0 0.05 0.03 0.03 87 1015.6
20260902220732 58 114 3.0 4.0 0.02 0.03 0.03 87 1015.6
20260902220231 58 135 3.0 4.0 0.02 0.02 0.02 85 1015.7
20260902215722 58 159 3.0 4.0 0.02 0.02 0.02 85 1015.6
20260902215217 58 160 3.0 4.0 0.00 0.02 0.02 86 1015.6
20260902214712 58 290 2.0 3.0 0.00 0.02 0.02 85 1015.6
20260902214211 59 165 4.0 5.0 0.00 0.02 0.02 84 1015.8
20260902213706 58 192 1.0 2.0 0.00 0.02 0.02 84 1015.8
20260902213201 58 295 1.0 3.0 0.00 0.02 0.02 83 1015.9
20260902212656 58 65 0.0 4.0 0.00 0.02 0.02 84 1015.9
20260902212153 58 246 3.0 3.0 0.00 0.02 0.02 86 1015.9
20260902211649 57 317 4.0 8.0 0.00 0.02 0.02 84 1015.9
20260902211149 57 247 2.0 8.0 0.02 0.02 0.02 85 1015.9
20260902210648 58 216 4.0 5.0 0.02 0.02 0.02 85 1015.9
20260902210143 57 282 9.0 9.0 0.00 0.02 0.02 85 1015.8
20260902205642 57 271 2.0 4.0 0.00 0.02 0.02 86 1015.8
20260902205137 57 225 5.0 5.0 0.00 0.02 0.02 85 1015.9
20260902204632 57 195 3.0 5.0 0.00 0.02 0.02 86 1016.0
20260902204126 57 164 4.0 10.0 0.00 0.02 0.02 85 1016.0
20260902203622 57 139 3.0 6.0 0.02 0.02 0.02 85 1016.0
20260902203122 57 159 2.0 5.0 0.00 0.01 0.01 85 1016.2
20260902202617 57 226 3.0 5.0 0.02 0.01 0.01 84 1016.2
20260902202114 57 195 8.0 8.0 0.02 0.01 0.01 83 1016.1
20260902201604 58 187 4.0 9.0 0.00 0.01 0.01 81 1016.1
20260902201103 58 186 7.0 8.0 0.00 0.01 0.01 80 1016.2
20260902200558 58 197 3.0 11.0 0.00 0.01 0.01 79 1016.2
20260902200054 59 228 4.0 6.0 0.00 0.01 0.01 77 1016.0
20260902195550 59 106 4.0 11.0 0.00 0.01 0.01 76 1016.1
20260902195048 59 125 2.0 13.0 0.00 0.01 0.01 74 1016.2
20260902194542 60 161 2.0 6.0 0.00 0.01 0.01 75 1016.2
20260902194038 59 92 5.0 15.0 0.00 0.01 0.01 76 1016.2
20260902193534 59 191 3.0 6.0 0.00 0.01 0.01 77 1016.2
20260902193033 59 192 4.0 7.0 0.00 0.01 0.01 76 1016.3
20260902192532 59 161 3.0 6.0 0.00 0.01 0.01 78 1016.4
20260902192030 59 76 5.0 8.0 0.00 0.01 0.01 78 1016.4
20260902191526 58 93 7.0 12.0 0.00 0.01 0.01 78 1016.4
20260902191021 58 97 9.0 14.0 0.00 0.01 0.01 77 1016.5
20260902190516 58 76 2.0 12.0 0.00 0.01 0.01 77 1016.8
20260902190012 58 88 4.0 8.0 0.00 0.01 0.01 76 1016.4
20260902185508 58 89 3.0 9.0 0.00 0.01 0.01 76 1016.5
20260902185003 59 78 11.0 14.0 0.00 0.01 0.01 75 1016.7
20260902184458 59 138 4.0 6.0 0.00 0.01 0.01 75 1016.5
20260902183953 59 89 2.0 4.0 0.00 0.01 0.01 75 1016.4
20260902183449 58 101 6.0 11.0 0.00 0.01 0.01 76 1016.4
20260902182945 58 158 4.0 8.0 0.00 0.01 0.01 75 1016.7
20260902182441 59 221 4.0 5.0 0.00 0.01 0.01 74 1016.4
20260902181937 59 99 3.0 6.0 0.00 0.01 0.01 74 1016.5
20260902181433 59 88 5.0 12.0 0.00 0.01 0.01 74 1016.3
20260902180927 59 112 3.0 11.0 0.00 0.01 0.01 74 1016.4
20260902180422 59 96 4.0 17.0 0.00 0.01 0.01 74 1016.3
20260902175918 59 101 9.0 14.0 0.00 0.01 0.01 73 1016.3
20260902175413 59 172 6.0 8.0 0.00 0.01 0.01 72 1016.4
20260902174908 59 96 5.0 12.0 0.00 0.01 0.01 73 1016.2
20260902174405 59 150 5.0 12.0 0.00 0.01 0.01 73 1016.3
20260902173900 59 135 9.0 14.0 0.00 0.01 0.01 73 1016.3
20260902173359 59 120 5.0 15.0 0.00 0.01 0.01 72 1016.2
20260902172854 60 86 6.0 12.0 0.00 0.01 0.01 72 1016.2
20260902172354 60 150 5.0 9.0 0.00 0.01 0.01 71 1016.3
20260902171849 60 112 7.0 16.0 0.00 0.01 0.01 70 1016.2
20260902171344 59 100 1.0 9.0 0.00 0.01 0.01 73 1016.2
20260902170841 59 189 5.0 7.0 0.00 0.01 0.01 73 1016.0
20260902170336 58 323 1.0 8.0 0.00 0.01 0.01 74 1016.1
20260902165831 58 203 2.0 10.0 0.00 0.01 0.01 74 1016.2
20260902165330 58 87 10.0 11.0 0.00 0.01 0.01 75 1016.2
20260902164825 57 244 4.0 7.0 0.00 0.01 0.01 75 1016.0
20260902164320 57 111 4.0 14.0 0.00 0.01 0.01 76 1016.0
20260902163814 57 282 4.0 20.0 0.00 0.01 0.01 75 1016.3
20260902163309 57 230 7.0 14.0 0.00 0.01 0.01 75 1016.0
20260902162807 57 185 11.0 13.0 0.00 0.01 0.01 75 1015.8
20260902162306 57 251 4.0 13.0 0.00 0.01 0.01 75 1016.0
20260902161802 57 189 4.0 12.0 0.00 0.01 0.01 76 1016.0
20260902161258 57 176 8.0 14.0 0.00 0.01 0.01 75 1015.9
20260902160754 57 110 2.0 9.0 0.00 0.01 0.01 75 1016.0
20260902160249 57 120 2.0 9.0 0.00 0.01 0.01 76 1015.9
20260902155747 57 83 3.0 12.0 0.00 0.01 0.01 76 1015.8
20260902155246 57 168 5.0 15.0 0.00 0.01 0.01 76 1015.9
20260902154741 56 200 4.0 11.0 0.00 0.01 0.01 78 1015.7
20260902154236 56 168 7.0 10.0 0.00 0.01 0.01 77 1015.8
20260902153729 56 204 7.0 7.0 0.00 0.01 0.01 79 1015.7
20260902153224 56 118 7.0 11.0 0.00 0.01 0.01 78 1015.6
20260902152720 56 215 4.0 6.0 0.00 0.01 0.01 79 1015.7
20260902152215 56 250 7.0 13.0 0.00 0.01 0.01 79 1015.7
20260902151711 56 162 5.0 11.0 0.00 0.01 0.01 79 1015.9
20260902151206 56 205 2.0 12.0 0.00 0.01 0.01 80 1015.7
20260902150701 56 155 5.0 10.0 0.00 0.01 0.01 79 1015.7
20260902150157 56 169 4.0 9.0 0.00 0.01 0.01 80 1015.8
20260902145656 56 256 4.0 7.0 0.00 0.01 0.01 79 1015.7
20260902145156 56 235 4.0 9.0 0.00 0.01 0.01 80 1015.5
20260902144652 56 298 2.0 6.0 0.00 0.01 0.01 80 1015.3
20260902144148 56 183 4.0 9.0 0.00 0.01 0.01 80 1015.5
20260902143647 56 287 5.0 10.0 0.00 0.01 0.01 81 1015.3
20260902143143 56 262 3.0 9.0 0.00 0.01 0.01 81 1015.1
20260902142638 56 251 0.0 4.0 0.00 0.01 0.01 80 1015.2
20260902142134 56 290 5.0 9.0 0.00 0.01 0.01 81 1015.2
20260902141633 56 281 4.0 11.0 0.00 0.01 0.01 82 1015.3
20260902141129 55 269 10.0 11.0 0.00 0.01 0.01 83 1015.3
20260902140624 55 263 5.0 9.0 0.00 0.01 0.01 83 1015.1
20260902140119 55 252 5.0 9.0 0.00 0.01 0.01 83 1015.2
20260902135619 56 243 5.0 10.0 0.00 0.01 0.01 81 1015.1
20260902135114 56 278 5.0 10.0 0.00 0.01 0.01 80 1015.0
20260902134609 56 255 4.0 6.0 0.00 0.01 0.01 80 1015.3
20260902134104 56 191 2.0 4.0 0.00 0.01 0.01 80 1015.1
20260902133559 56 58 5.0 6.0 0.00 0.01 0.01 80 1015.1
20260902133059 56 97 4.0 9.0 0.00 0.01 0.01 80 1015.3
20260902132554 56 160 10.0 13.0 0.00 0.01 0.01 80 1015.3
20260902132049 56 88 4.0 15.0 0.00 0.01 0.01 80 1015.0
20260902131546 56 94 5.0 24.0 0.00 0.01 0.01 80 1015.3
20260902131046 56 331 4.0 9.0 0.00 0.01 0.01 82 1015.2
20260902130541 56 99 4.0 12.0 0.00 0.01 0.01 81 1015.4
20260902130031 56 122 7.0 14.0 0.00 0.01 0.01 82 1015.3
20260902125527 56 104 10.0 15.0 0.00 0.01 0.01 82 1015.2
20260902125022 56 80 2.0 16.0 0.00 0.01 0.01 82 1015.2
20260902124518 56 177 2.0 17.0 0.02 0.01 0.01 81 1015.2
20260902124013 56 177 6.0 14.0 0.02 0.01 0.01 82 1015.2
20260902123509 56 93 1.0 9.0 0.00 0.00 0.00 82 1015.2
20260902123008 56 118 4.0 14.0 0.00 0.00 0.00 82 1015.1
20260902122503 56 212 2.0 11.0 0.00 0.00 0.00 83 1015.1
20260902121958 56 213 3.0 7.0 0.00 0.00 0.00 84 1015.0
20260902121454 56 158 3.0 9.0 0.00 0.00 0.00 83 1015.1
20260902120948 56 60 3.0 9.0 0.00 0.00 0.00 84 1015.0
20260902120445 55 235 6.0 16.0 0.00 0.00 0.00 85 1015.1
20260902115944 55 123 4.0 14.0 0.00 0.00 0.00 85 1015.0
20260902115440 55 171 5.0 12.0 0.00 0.00 0.00 86 1015.0
20260902114937 55 129 3.0 12.0 0.02 0.00 0.00 85 1014.9
20260902114432 56 132 7.0 11.0 0.02 0.00 0.00 85 1015.1
20260902113927 57 156 4.0 13.0 0.00 0.00 0.00 82 1015.0
20260902113422 57 176 3.0 8.0 0.00 0.00 0.00 83 1015.0
20260902112922 57 133 3.0 13.0 0.00 0.00 0.00 83 1015.1
20260902112418 57 111 5.0 10.0 0.00 0.00 0.00 83 1014.9
20260902111914 57 152 3.0 9.0 0.00 0.00 0.00 83 1015.0
20260902111410 57 156 3.0 11.0 0.00 0.00 0.00 83 1015.0
20260902110906 56 0 2.0 9.0 0.00 0.00 0.00 84 1015.2
20260902110402 57 109 5.0 9.0 0.00 0.00 0.00 84 1014.9